• In Belarus
  • List of Countries
  • For 7 days
  • Water Temperature
  • Weather Map
  • Weather Widgets
  • user-avatar
    Login

    Hourly Weather Tashkent

    Today, 14 October, Monday

    Time Temperature Precipitation Wind Pressure Humidity
    00:00 +20°C° 0 mm 1 mps 725 mmHg 29%
    01:00 +19°C° 0 mm 1 mps 725 mmHg 31%
    02:00 +18°C° 0 mm 1 mps 725 mmHg 33%
    03:00 +17°C° 0 mm 2 mps 725 mmHg 34%
    04:00 +16°C° 0 mm 2 mps 726 mmHg 36%
    05:00 +15°C° 0 mm 2 mps 727 mmHg 38%
    06:00 +15°C° 0 mm 2 mps 727 mmHg 36%
    07:00 +15°C° 0 mm 2 mps 728 mmHg 34%
    08:00 +14°C° 0 mm 3 mps 728 mmHg 32%
    09:00 +16°C° 0 mm 2 mps 729 mmHg 29%
    10:00 +17°C° 0 mm 2 mps 729 mmHg 26%
    11:00 +19°C° 0 mm 2 mps 729 mmHg 23%
    12:00 +18°C° 0 mm 2 mps 729 mmHg 29%
    13:00 +18°C° 0 mm 3 mps 729 mmHg 35%
    14:00 +17°C° 0 mm 4 mps 729 mmHg 40%
    15:00 +18°C° 0 mm 4 mps 729 mmHg 38%
    16:00 +18°C° 0 mm 3 mps 730 mmHg 36%
    17:00 +18°C° 0 mm 3 mps 730 mmHg 34%
    18:00 +17°C° 0 mm 2 mps 730 mmHg 38%
    19:00 +15°C° 0 mm 2 mps 731 mmHg 41%
    20:00 +14°C° 0 mm 1 mps 731 mmHg 45%
    21:00 +13°C° 0 mm 1 mps 731 mmHg 46%
    22:00 +13°C° 0 mm 1 mps 731 mmHg 46%
    23:00 +13°C° 0 mm 1 mps 731 mmHg 47%

    Tomorrow, 15 October, Tuesday

    Time Temperature Precipitation Wind Pressure Humidity
    00:00 +13°C° 0 mm 1 mps 731 mmHg 46%
    01:00 +13°C° 0 mm 1 mps 731 mmHg 46%
    02:00 +13°C° 0 mm 1 mps 731 mmHg 45%
    03:00 +12°C° 0 mm 1 mps 731 mmHg 46%
    04:00 +12°C° 0 mm 1 mps 731 mmHg 46%
    05:00 +11°C° 0 mm 0 mps 731 mmHg 46%
    06:00 +11°C° 0 mm 0 mps 731 mmHg 44%
    07:00 +13°C° 0 mm 1 mps 731 mmHg 42%
    08:00 +14°C° 0 mm 1 mps 731 mmHg 40%
    09:00 +15°C° 0 mm 1 mps 731 mmHg 35%
    10:00 +18°C° 0 mm 1 mps 731 mmHg 31%
    11:00 +20°C° 0 mm 1 mps 731 mmHg 27%
    12:00 +21°C° 0 mm 1 mps 731 mmHg 25%
    13:00 +22°C° 0 mm 1 mps 730 mmHg 23%
    14:00 +23°C° 0 mm 2 mps 730 mmHg 21%
    15:00 +21°C° 0 mm 2 mps 730 mmHg 22%
    16:00 +21°C° 0 mm 2 mps 730 mmHg 23%
    17:00 +21°C° 0 mm 2 mps 729 mmHg 23%
    18:00 +19°C° 0 mm 2 mps 729 mmHg 26%
    19:00 +18°C° 0 mm 2 mps 729 mmHg 29%
    20:00 +16°C° 0 mm 3 mps 729 mmHg 32%
    21:00 +16°C° 0 mm 2 mps 728 mmHg 33%
    22:00 +15°C° 0 mm 2 mps 728 mmHg 33%
    23:00 +15°C° 0 mm 2 mps 727 mmHg 34%

    Day after tomorrow, 16 October, Wednesday

    Time Temperature Precipitation Wind Pressure Humidity
    00:00 +14°C° 0 mm 2 mps 727 mmHg 35%
    01:00 +14°C° 0 mm 1 mps 727 mmHg 35%
    02:00 +14°C° 0 mm 1 mps 727 mmHg 35%
    03:00 +14°C° 0 mm 1 mps 726 mmHg 35%
    04:00 +14°C° 0 mm 1 mps 726 mmHg 36%
    05:00 +13°C° 0 mm 1 mps 726 mmHg 36%
    06:00 +14°C° 0 mm 1 mps 726 mmHg 34%
    07:00 +14°C° 0 mm 0 mps 726 mmHg 32%
    08:00 +15°C° 0 mm 0 mps 726 mmHg 30%
    09:00 +19°C° 0 mm 1 mps 726 mmHg 27%
    10:00 +21°C° 0 mm 1 mps 726 mmHg 24%
    11:00 +23°C° 0 mm 1 mps 726 mmHg 21%
    12:00 +24°C° 0 mm 1 mps 726 mmHg 20%
    13:00 +24°C° 0 mm 2 mps 725 mmHg 18%
    14:00 +25°C° 0 mm 2 mps 725 mmHg 17%
    15:00 +25°C° 0 mm 2 mps 725 mmHg 18%
    16:00 +24°C° 0 mm 2 mps 725 mmHg 20%
    17:00 +24°C° 0 mm 2 mps 725 mmHg 21%
    18:00 +21°C° 0 mm 2 mps 725 mmHg 26%
    19:00 +19°C° 0 mm 2 mps 725 mmHg 30%
    20:00 +18°C° 0 mm 3 mps 725 mmHg 34%
    21:00 +17°C° 0 mm 2 mps 725 mmHg 35%
    22:00 +17°C° 0 mm 2 mps 725 mmHg 36%
    23:00 +16°C° 0 mm 2 mps 724 mmHg 37%

    17 October, Thursday

    Time Temperature Precipitation Wind Pressure Humidity
    00:00 +16°C° 0 mm 2 mps 724 mmHg 37%
    01:00 +16°C° 0 mm 1 mps 724 mmHg 37%
    02:00 +15°C° 0 mm 1 mps 724 mmHg 37%
    03:00 +15°C° 0 mm 1 mps 724 mmHg 37%
    04:00 +15°C° 0 mm 1 mps 725 mmHg 37%
    05:00 +15°C° 0 mm 1 mps 725 mmHg 37%
    06:00 +15°C° 0 mm 1 mps 725 mmHg 36%
    07:00 +16°C° 0 mm 1 mps 725 mmHg 35%
    08:00 +18°C° 0 mm 1 mps 726 mmHg 33%
    09:00 +20°C° 0 mm 1 mps 726 mmHg 32%
    10:00 +20°C° 0 mm 2 mps 726 mmHg 31%
    11:00 +23°C° 0 mm 2 mps 726 mmHg 30%
    12:00 +24°C° 0 mm 3 mps 726 mmHg 28%
    13:00 +25°C° 0 mm 3 mps 726 mmHg 27%
    14:00 +26°C° 0 mm 3 mps 726 mmHg 26%
    15:00 +25°C° 0 mm 3 mps 726 mmHg 27%
    16:00 +23°C° 0 mm 4 mps 726 mmHg 28%
    17:00 +23°C° 0 mm 4 mps 726 mmHg 29%
    18:00 +21°C° 0 mm 4 mps 726 mmHg 33%
    19:00 +20°C° 0 mm 4 mps 727 mmHg 37%
    20:00 +18°C° 0 mm 4 mps 727 mmHg 41%
    21:00 +17°C° 0 mm 3 mps 727 mmHg 44%
    22:00 +17°C° 0 mm 3 mps 727 mmHg 46%
    23:00 +16°C° 0 mm 2 mps 727 mmHg 48%

    18 October, Friday

    Time Temperature Precipitation Wind Pressure Humidity
    00:00 +15°C° 0 mm 2 mps 726 mmHg 49%
    01:00 +15°C° 0 mm 2 mps 726 mmHg 50%
    02:00 +15°C° 0 mm 1 mps 726 mmHg 51%
    03:00 +14°C° 0 mm 1 mps 726 mmHg 52%
    04:00 +14°C° 0 mm 1 mps 726 mmHg 53%
    05:00 +14°C° 0 mm 1 mps 726 mmHg 54%
    06:00 +14°C° 0 mm 1 mps 726 mmHg 54%
    07:00 +13°C° 0 mm 2 mps 726 mmHg 55%
    08:00 +13°C° 0 mm 2 mps 726 mmHg 56%
    09:00 +15°C° 0 mm 2 mps 726 mmHg 50%
    10:00 +18°C° 0 mm 2 mps 726 mmHg 43%
    11:00 +20°C° 0 mm 2 mps 726 mmHg 37%
    12:00 +21°C° 0 mm 2 mps 725 mmHg 33%
    13:00 +23°C° 0 mm 1 mps 725 mmHg 29%
    14:00 +24°C° 0 mm 1 mps 725 mmHg 25%
    15:00 +24°C° 0 mm 1 mps 725 mmHg 25%
    16:00 +23°C° 0 mm 1 mps 724 mmHg 25%
    17:00 +23°C° 0 mm 1 mps 724 mmHg 25%
    18:00 +21°C° 0 mm 1 mps 724 mmHg 28%
    19:00 +20°C° 0 mm 1 mps 724 mmHg 31%
    20:00 +18°C° 0 mm 1 mps 723 mmHg 34%
    21:00 +18°C° 0 mm 1 mps 723 mmHg 34%
    22:00 +18°C° 0 mm 1 mps 723 mmHg 35%
    23:00 +16°C° 0 mm 1 mps 723 mmHg 36%

    19 October, Saturday

    Time Temperature Precipitation Wind Pressure Humidity
    00:00 +16°C° 0 mm 1 mps 723 mmHg 36%
    01:00 +16°C° 0 mm 1 mps 722 mmHg 37%
    02:00 +16°C° 0 mm 1 mps 722 mmHg 37%
    03:00 +15°C° 0 mm 1 mps 722 mmHg 38%
    04:00 +15°C° 0 mm 1 mps 722 mmHg 38%
    05:00 +15°C° 0 mm 1 mps 722 mmHg 39%
    06:00 +16°C° 0 mm 1 mps 722 mmHg 37%
    07:00 +18°C° 0 mm 1 mps 722 mmHg 35%
    08:00 +19°C° 0 mm 1 mps 722 mmHg 33%
    09:00 +21°C° 0 mm 1 mps 723 mmHg 29%
    10:00 +23°C° 0 mm 1 mps 723 mmHg 25%
    11:00 +25°C° 0 mm 2 mps 723 mmHg 22%
    12:00 +26°C° 0 mm 2 mps 723 mmHg 19%
    13:00 +27°C° 0 mm 3 mps 722 mmHg 17%
    14:00 +28°C° 0 mm 3 mps 722 mmHg 15%
    15:00 +27°C° 0 mm 3 mps 722 mmHg 16%
    16:00 +26°C° 0 mm 3 mps 722 mmHg 17%
    17:00 +25°C° 0 mm 3 mps 722 mmHg 18%
    18:00 +22°C° 0 mm 3 mps 723 mmHg 20%
    19:00 +21°C° 0 mm 2 mps 723 mmHg 23%
    20:00 +19°C° 0 mm 2 mps 723 mmHg 25%
    21:00 +19°C° 0 mm 2 mps 723 mmHg 26%
    22:00 +18°C° 0 mm 2 mps 724 mmHg 27%
    23:00 +18°C° 0 mm 1 mps 724 mmHg 29%
    Show more